EN

Hourly Weather Brodyatyne

Today, 16 April, Friday

Time Temperature Precipitation Wind Pressure Humidity
00:00 +4°C° 0 mm 3 mps 745 mmHg 93%
01:00 +4°C° 0 mm 4 mps 745 mmHg 94%
02:00 +4°C° 0 mm 4 mps 745 mmHg 94%
03:00 +4°C° 1.1 mm 4 mps 744 mmHg 95%
04:00 +4°C° 1.1 mm 4 mps 744 mmHg 96%
05:00 +4°C° 1.1 mm 4 mps 744 mmHg 97%
06:00 +4°C° 0.9 mm 4 mps 744 mmHg 96%
07:00 +4°C° 0.9 mm 4 mps 743 mmHg 96%
08:00 +4°C° 0.9 mm 4 mps 743 mmHg 96%
09:00 +5°C° 0.1 mm 4 mps 743 mmHg 94%
10:00 +6°C° 0.1 mm 4 mps 743 mmHg 93%
11:00 +6°C° 0.1 mm 4 mps 743 mmHg 91%
12:00 +6°C° 0.1 mm 4 mps 743 mmHg 90%
13:00 +6°C° 0.1 mm 4 mps 744 mmHg 89%
14:00 +7°C° 0.1 mm 4 mps 744 mmHg 87%
15:00 +8°C° 0.1 mm 3 mps 744 mmHg 87%
16:00 +8°C° 0.1 mm 3 mps 744 mmHg 86%
17:00 +8°C° 0.1 mm 2 mps 745 mmHg 85%
18:00 +7°C° 0.3 mm 2 mps 745 mmHg 87%
19:00 +8°C° 0.3 mm 1 mps 745 mmHg 90%
20:00 +7°C° 0.3 mm 1 mps 746 mmHg 93%
21:00 +7°C° 0 mm 1 mps 746 mmHg 93%
22:00 +7°C° 0 mm 1 mps 746 mmHg 93%
23:00 +6°C° 0 mm 1 mps 746 mmHg 93%

Tomorrow, 17 April, Saturday

Time Temperature Precipitation Wind Pressure Humidity
00:00 +6°C° 0 mm 1 mps 746 mmHg 93%
01:00 +6°C° 0 mm 1 mps 747 mmHg 93%
02:00 +6°C° 0 mm 1 mps 747 mmHg 93%
03:00 +6°C° 0.1 mm 1 mps 747 mmHg 93%
04:00 +6°C° 0.1 mm 1 mps 747 mmHg 93%
05:00 +6°C° 0.1 mm 1 mps 747 mmHg 94%
06:00 +6°C° 0 mm 1 mps 748 mmHg 92%
07:00 +7°C° 0 mm 1 mps 748 mmHg 91%
08:00 +7°C° 0 mm 1 mps 748 mmHg 90%
09:00 +8°C° 0 mm 1 mps 749 mmHg 87%
10:00 +8°C° 0 mm 1 mps 749 mmHg 84%
11:00 +9°C° 0 mm 1 mps 749 mmHg 81%
12:00 +10°C° 0 mm 1 mps 749 mmHg 77%
13:00 +11°C° 0 mm 1 mps 750 mmHg 72%
14:00 +10°C° 0 mm 2 mps 750 mmHg 67%
15:00 +10°C° 0 mm 2 mps 750 mmHg 68%
16:00 +10°C° 0 mm 2 mps 750 mmHg 69%
17:00 +11°C° 0 mm 1 mps 750 mmHg 69%
18:00 +10°C° 0 mm 1 mps 750 mmHg 74%
19:00 +10°C° 0 mm 1 mps 750 mmHg 78%
20:00 +9°C° 0 mm 1 mps 750 mmHg 82%
21:00 +8°C° 0 mm 1 mps 750 mmHg 84%
22:00 +8°C° 0 mm 1 mps 750 mmHg 86%
23:00 +6°C° 0 mm 0 mps 750 mmHg 88%

Day after tomorrow, 18 April, Sunday

Time Temperature Precipitation Wind Pressure Humidity
00:00 +6°C° 0 mm 0 mps 750 mmHg 89%
01:00 +7°C° 0 mm 1 mps 750 mmHg 90%
02:00 +6°C° 0 mm 1 mps 750 mmHg 91%
03:00 +6°C° 0 mm 1 mps 750 mmHg 91%
04:00 +5°C° 0 mm 0 mps 750 mmHg 92%
05:00 +5°C° 0 mm 0 mps 750 mmHg 92%
06:00 +6°C° 0 mm 0 mps 750 mmHg 90%
07:00 +7°C° 0 mm 0 mps 750 mmHg 87%
08:00 +7°C° 0 mm 0 mps 750 mmHg 84%
09:00 +9°C° 0 mm 1 mps 750 mmHg 82%
10:00 +10°C° 0 mm 1 mps 750 mmHg 80%
11:00 +10°C° 0 mm 1 mps 750 mmHg 78%
12:00 +11°C° 0 mm 1 mps 750 mmHg 78%
13:00 +10°C° 0 mm 2 mps 750 mmHg 78%
14:00 +10°C° 0 mm 2 mps 750 mmHg 79%
15:00 +10°C° 0 mm 2 mps 750 mmHg 80%
16:00 +10°C° 0 mm 2 mps 750 mmHg 81%
17:00 +10°C° 0 mm 2 mps 750 mmHg 82%
18:00 +9°C° 0 mm 2 mps 750 mmHg 85%
19:00 +9°C° 0 mm 2 mps 750 mmHg 88%
20:00 +8°C° 0 mm 2 mps 750 mmHg 91%
21:00 +8°C° 0 mm 2 mps 750 mmHg 91%
22:00 +8°C° 0 mm 2 mps 750 mmHg 92%
23:00 +8°C° 0 mm 2 mps 750 mmHg 92%

19 April, Monday

Time Temperature Precipitation Wind Pressure Humidity
00:00 +8°C° 0 mm 2 mps 750 mmHg 93%
01:00 +8°C° 0 mm 2 mps 750 mmHg 94%
02:00 +7°C° 0 mm 2 mps 750 mmHg 95%
03:00 +7°C° 0 mm 3 mps 750 mmHg 95%
04:00 +7°C° 0 mm 3 mps 750 mmHg 95%
05:00 +6°C° 0 mm 4 mps 749 mmHg 95%
06:00 +6°C° 0 mm 4 mps 750 mmHg 91%
07:00 +6°C° 0 mm 5 mps 750 mmHg 87%
08:00 +6°C° 0 mm 5 mps 750 mmHg 83%
09:00 +7°C° 0 mm 6 mps 749 mmHg 77%
10:00 +8°C° 0 mm 6 mps 749 mmHg 71%
11:00 +9°C° 0 mm 6 mps 749 mmHg 66%
12:00 +9°C° 0 mm 6 mps 749 mmHg 66%
13:00 +9°C° 0 mm 5 mps 749 mmHg 66%
14:00 +9°C° 0 mm 5 mps 749 mmHg 66%
15:00 +9°C° 0 mm 5 mps 749 mmHg 67%
16:00 +8°C° 0 mm 5 mps 749 mmHg 68%
17:00 +8°C° 0 mm 5 mps 748 mmHg 69%
18:00 +8°C° 0 mm 5 mps 748 mmHg 70%
19:00 +7°C° 0 mm 5 mps 748 mmHg 71%
20:00 +7°C° 0 mm 4 mps 748 mmHg 72%
21:00 +7°C° 0 mm 4 mps 748 mmHg 72%
22:00 +6°C° 0 mm 4 mps 748 mmHg 72%
23:00 +6°C° 0 mm 4 mps 747 mmHg 72%

20 April, Tuesday

Time Temperature Precipitation Wind Pressure Humidity
00:00 +6°C° 0 mm 4 mps 747 mmHg 74%
01:00 +6°C° 0 mm 4 mps 747 mmHg 76%
02:00 +6°C° 0 mm 4 mps 746 mmHg 77%
03:00 +6°C° 0 mm 4 mps 746 mmHg 79%
04:00 +5°C° 0 mm 5 mps 746 mmHg 81%
05:00 +5°C° 0 mm 5 mps 745 mmHg 83%
06:00 +4°C° 0 mm 6 mps 745 mmHg 83%
07:00 +4°C° 0 mm 6 mps 745 mmHg 82%
08:00 +5°C° 0 mm 6 mps 745 mmHg 82%
09:00 +5°C° 0 mm 6 mps 745 mmHg 78%
10:00 +7°C° 0 mm 6 mps 744 mmHg 75%
11:00 +8°C° 0 mm 6 mps 744 mmHg 71%
12:00 +8°C° 0.1 mm 6 mps 744 mmHg 69%
13:00 +8°C° 0.1 mm 6 mps 743 mmHg 66%
14:00 +9°C° 0.1 mm 6 mps 743 mmHg 64%
15:00 +8°C° 0 mm 6 mps 743 mmHg 65%
16:00 +8°C° 0 mm 6 mps 743 mmHg 66%
17:00 +8°C° 0 mm 6 mps 742 mmHg 67%
18:00 +8°C° 0 mm 6 mps 742 mmHg 69%
19:00 +7°C° 0 mm 5 mps 742 mmHg 71%
20:00 +7°C° 0 mm 5 mps 742 mmHg 73%
21:00 +6°C° 0 mm 5 mps 742 mmHg 75%
22:00 +6°C° 0 mm 5 mps 742 mmHg 76%
23:00 +5°C° 0 mm 5 mps 742 mmHg 78%

21 April, Wednesday

Time Temperature Precipitation Wind Pressure Humidity
00:00 +5°C° 0 mm 5 mps 742 mmHg 78%
01:00 +5°C° 0 mm 5 mps 741 mmHg 79%
02:00 +5°C° 0 mm 5 mps 741 mmHg 79%
03:00 +5°C° 0 mm 5 mps 741 mmHg 79%
04:00 +5°C° 0 mm 5 mps 741 mmHg 79%
05:00 +5°C° 0 mm 5 mps 741 mmHg 79%
06:00 +6°C° 0 mm 5 mps 741 mmHg 75%
07:00 +5°C° 0 mm 6 mps 741 mmHg 71%
08:00 +7°C° 0 mm 6 mps 742 mmHg 67%
09:00 +7°C° 0 mm 6 mps 742 mmHg 62%
10:00 +8°C° 0 mm 6 mps 742 mmHg 58%
11:00 +9°C° 0 mm 6 mps 742 mmHg 54%
12:00 +10°C° 0.1 mm 7 mps 742 mmHg 54%
13:00 +10°C° 0.1 mm 7 mps 742 mmHg 53%
14:00 +10°C° 0.1 mm 7 mps 742 mmHg 53%
15:00 +10°C° 0.1 mm 7 mps 743 mmHg 56%
16:00 +10°C° 0.1 mm 6 mps 743 mmHg 59%
17:00 +10°C° 0.1 mm 6 mps 743 mmHg 62%
18:00 +9°C° 0 mm 5 mps 743 mmHg 66%
19:00 +8°C° 0 mm 4 mps 744 mmHg 71%
20:00 +8°C° 0 mm 3 mps 744 mmHg 75%
21:00 +7°C° 0 mm 3 mps 744 mmHg 78%
22:00 +5°C° 0 mm 3 mps 745 mmHg 81%
23:00 +5°C° 0 mm 3 mps 745 mmHg 83%
Show more

We Need Your Consent

Meteoprog and our Service Providers may store and access personal data such as cookies, device identifiers or other similar technologies on your device and process such data to personalise content and ads, as well as provide social media features and to analyse the traffic.

  • Store and/or access information on your device

    Cookies, device identifiers or other information can be stored or accessed on your device for the purposes indicated above.

  • Personalised ads and content, ad and content measurement, audience insights, and products development

    Ads and content can be personalised based on a profile. More data can be added to better personalise ads and content. Ad and content performance can be measured. Insights about the audience who saw the ads and content can be derived. Such data can be used to develop or improve user’s experience, systems and software.

By clicking ‘I Agree’ you will allow the use of indicated cookies, device identifiers, web beacons or other similar technologies. Your settings can be changed in the browser on your device.

For certain purposes, legitimate interests may be relied on, rather than consent. You can read more about this in our Privacy and Cookie Policy.